Dewpoint
-17 -14 -3 3 4 8 8 7 3 1 1 3 6 7 7 7 7 11 9 8 5 -9 -3 3 6 9 10 10 10 9 9 8 5 2 2 3 4 5 6 7 7 2 4 0 -5 -2 -1 -10 -10
-17 -7 -3 -1 5 9 8 2 2 1 1 4 6 7 8 8 7 9 8 7 4 -8 -4 2 7 9 10 11 10 10 10 9 6 3 2 3 3 4 5 5 6 2 -0 -5 -2 -4 -7 -6 -4
-8 -5 -3 -0 2 7 5 -2 -0 -1 1 3 6 6 7 8 8 8 8 8 1 -6 -6 -0 6 9 10 11 11 10 10 9 7 5 2 1 3 4 4 4 4 3 -2 -4 -3 -6 -6 -4 -1
-8 -5 -4 -7 -0 3 -0 -8 -4 1 6 7 7 7 8 8 8 8 9 6 -3 -2 -4 -5 2 7 10 11 11 11 11 10 8 6 2 1 3 4 4 4 3 3 -2 -4 -2 -4 -5 -5 -3
-7 -9 -10 -6 -7 -7 -9 -10 -1 -0 7 8 6 7 8 8 8 8 9 6 -2 1 0 -2 -4 0 7 11 11 11 11 10 8 6 3 1 3 4 4 4 3 2 -2 -3 -3 -4 -5 -5 -4
-10 -12 -10 -9 -5 -8 -10 -7 -4 -2 2 8 7 7 8 8 8 9 9 9 6 4 3 2 0 -4 -2 4 8 11 11 11 8 6 3 3 1 3 2 1 0 1 -1 -1 -3 -4 -3 -3 -3
-11 -13 -11 -12 -6 -8 -10 -7 -4 -4 -0 6 7 7 8 9 9 9 9 9 10 9 4 4 3 2 1 -0 2 6 9 10 9 6 4 3 1 0 1 1 -1 0 -0 -1 -2 -2 -2 -3 -3
-10 -14 -13 -13 -7 -9 -11 -8 -8 -8 -7 3 4 10 9 8 9 10 10 10 11 12 7 4 5 4 4 2 1 1 2 5 7 6 6 3 1 -1 -1 -1 -1 -1 -1 -1 -1 -2 -2 -3 -3
-11 -13 -11 -6 -9 -11 -11 -9 -9 -8 -8 -0 7 10 8 6 10 11 11 12 12 12 12 6 6 6 5 5 3 2 0 1 2 3 4 1 1 -1 -1 -1 -1 -2 -1 -1 -2 -2 -2 -2 -2
-14 -10 -6 -8 -11 -11 -11 -10 -10 -10 -9 -9 -7 10 10 7 9 10 12 12 13 12 9 6 7 7 7 6 5 3 2 1 2 1 1 2 0 -0 -0 -1 -2 -2 -2 -2 -2 -2 -2 -1 -1
-13 -10 -10 -13 -15 -12 -13 -12 -11 -11 -9 -10 -10 -10 8 10 8 8 10 11 11 11 12 9 4 8 7 7 7 6 3 1 2 3 1 2 0 -1 0 0 -0 -1 -2 -2 -2 -2 -2 -1 -0
-9 -10 -12 -16 -17 -11 -12 -13 -13 -13 -12 -11 -8 -2 -2 -0 2 3 7 10 13 13 12 12 11 6 9 11 11 12 10 5 2 -1 2 3 3 0 -0 6 3 4 2 -1 -2 -1 -1 -0 0
-9 -12 -13 -15 -18 -17 -12 -12 -12 -13 -13 -5 -1 1 2 2 2 2 5 8 11 13 14 13 13 12 10 10 13 13 12 11 8 9 3 1 4 6 8 9 7 5 10 10 1 -1 -1 -0 1
-11 -16 -17 -14 -17 -14 -12 -11 -12 -12 -5 1 1 2 2 3 4 2 4 6 10 11 14 15 14 13 13 12 14 14 12 12 11 12 11 10 10 7 11 12 12 10 11 10 9 3 1 -0 1
-16 -14 -15 -15 -16 -12 -9 -6 -6 -8 -1 1 2 2 2 2 2 4 5 5 8 11 12 14 15 14 13 13 12 13 13 13 12 12 11 11 11 11 10 12 12 11 11 11 11 9 9 9 7
-13 -13 -11 -14 -15 -18 -8 -3 -6 -1 -0 1 1 2 2 2 2 3 4 4 6 9 11 12 13 15 15 15 14 12 12 12 13 12 12 12 12 11 11 11 13 13 12 11 11 11 10 10 9
-12 -12 -11 -13 -16 -18 -5 -1 -3 -1 -1 -0 0 1 2 2 2 2 2 1 4 6 9 11 12 13 14 15 15 14 13 14 11 12 12 12 12 12 12 11 11 11 13 11 11 11 11 10 10
-11 -14 -11 -11 -14 -6 -2 -2 -2 -1 -1 -1 -0 0 1 1 1 1 1 0 -1 0 3 7 9 11 12 13 14 13 13 12 14 14 14 12 11 12 12 12 12 12 11 11 12 12 10 11 10
-15 -15 -10 -12 -13 -3 -2 -1 -2 -2 -1 -1 -0 -0 1 1 1 1 1 1 0 -1 -2 -1 2 4 8 10 11 12 13 13 14 13 14 14 13 13 13 12 13 12 12 11 11 12 12 10 10
-15 -12 -9 -3 -4 -3 -2 -1 -2 -2 -1 -1 -0 0 0 1 0 0 0 -0 -1 -1 -2 -2 -2 -1 -1 0 4 8 9 11 12 12 13 13 14 13 13 13 12 11 12 12 12 12 12 12 11
-12 -9 -4 -2 -2 -2 -1 0 -0 -1 -1 -1 -0 0 1 0 1 1 1 1 -3 -3 -4 -3 -3 -3 -3 -2 -1 2 5 6 8 10 12 12 12 13 13 13 13 13 14 12 12 12 12 12 12
-7 -10 -6 -3 -0 2 -2 3 0 -0 -0 -0 1 1 1 0 -0 -0 0 0 -0 -1 -4 -7 -8 -7 -3 -3 -3 -3 -0 1 1 3 6 7 7 10 13 13 13 13 13 13 14 13 12 12 11
-7 -9 -9 -6 -2 -1 -1 1 0 -1 1 1 1 -0 -1 -2 -2 -2 -2 -2 -3 -4 -4 -2 -6 -12 -14 -13 -6 -4 -4 -5 -3 -2 -0 2 4 5 7 9 11 13 13 13 13 14 14 12 12
-9 -7 -8 -8 -6 -0 -1 -2 1 0 0 0 -1 -2 -3 -3 -3 -3 -3 -3 -3 -3 -5 -6 -6 -6 -9 -12 -15 -13 -7 -6 -6 -6 -4 -2 -1 0 1 2 3 6 10 11 13 13 14 14 13
-8 -5 -1 -2 -2 -0 -6 -4 -1 -3 -2 -1 -2 -3 -4 -4 -4 -4 -4 -3 -3 -3 -3 -4 -5 -6 -7 -11 -12 -13 -15 -15 -13 -9 -8 -8 -5 -2 -1 -0 0 0 2 7 8 11 12 13 13
-6 -4 2 0 1 -2 -7 1 0 -2 -3 -2 -3 -4 -4 -4 -5 -4 -4 -4 -3 -3 -4 -4 -4 -4 -5 -8 -10 -11 -13 -16 -16 -15 -14 -11 -9 -9 -6 -3 -2 -2 -1 1 4 4 8 11 12
-6 -5 -5 1 -1 -0 1 -0 -1 -2 -3 -4 -4 -4 -4 -4 -4 -5 -4 -4 -4 -4 -4 -5 -5 -5 -4 -6 -6 -7 -9 -12 -17 -19 -18 -16 -15 -13 -12 -9 -6 -5 -3 -3 -1 2 3 4 9
-4 -3 -0 1 2 1 3 1 2 -0 -2 -3 -3 -4 -4 -4 -4 -4 -4 -4 -4 -4 -4 -5 -6 -5 -5 -5 -5 -5 -6 -9 -12 -13 -14 -15 -16 -15 -15 -14 -12 -9 -6 -4 -2 -1 0 2 3
-2 -0 -2 -1 2 1 4 3 -2 -1 -2 -3 -4 -4 -4 -4 -5 -4 -4 -4 -4 -4 -5 -5 -6 -6 -6 -6 -6 -6 -5 -7 -10 -11 -11 -12 -13 -14 -13 -14 -14 -13 -11 -9 -5 -4 0 1 1
-5 -1 -1 3 1 2 3 2 -3 -3 -3 -3 -3 -4 -4 -4 -4 -4 -4 -4 -4 -5 -5 -6 -6 -6 -7 -7 -6 -6 -6 -8 -10 -8 -9 -12 -12 -10 -8 -8 -8 -8 -7 -8 -9 -7 -2 -2 1
Wind_Speed
15 13 7 9 4 4 4 8 14 7 5 31 29 22 19 18 8 8 21 17 15 18 22 21 19 19 17 15 14 10 11 11 12 13 14 13 14 14 13 13 12 12 14 15 15 17 18 20 21
13 6 4 4 4 5 5 5 9 5 12 36 34 33 26 15 23 24 21 17 14 19 21 21 18 18 17 15 13 11 9 10 10 10 11 11 11 11 11 12 11 11 12 14 15 17 19 21 22
11 7 2 3 4 5 4 3 5 12 23 24 10 23 10 4 14 11 18 14 17 21 20 19 18 16 15 14 13 12 8 8 8 8 8 9 9 8 9 9 9 9 10 12 14 16 18 20 23
9 2 4 1 2 6 4 7 12 19 26 21 22 10 12 12 16 21 18 12 21 20 19 18 17 16 14 12 11 11 9 7 6 7 7 8 7 7 6 7 8 8 9 11 12 15 16 18 20
11 5 1 3 3 3 9 16 25 22 18 19 30 11 18 26 25 20 12 11 18 20 17 16 15 15 14 12 9 8 8 7 6 5 6 6 6 6 6 6 6 8 8 9 11 13 15 16 17
6 3 2 4 3 4 7 23 31 28 26 24 27 20 20 20 21 18 12 8 11 15 15 14 13 13 13 13 11 8 6 5 5 5 5 5 5 6 5 5 7 7 8 9 9 10 11 12 13
5 1 4 3 4 6 6 25 25 26 26 16 24 13 17 18 20 18 13 11 8 7 11 12 12 12 11 11 11 10 7 5 3 4 5 5 5 5 6 6 7 8 9 9 9 8 8 8 9
6 3 6 3 6 4 8 24 28 29 17 22 11 7 10 18 21 19 14 11 8 5 8 12 12 11 10 10 10 10 9 7 5 5 5 6 6 6 6 7 7 8 8 9 9 8 8 8 7
7 4 3 5 4 5 19 18 33 31 29 33 26 21 20 18 16 18 15 10 7 5 4 13 13 12 11 10 10 9 9 9 8 7 6 6 7 7 7 8 9 9 9 10 10 10 10 9 8
3 3 3 3 5 10 21 24 22 21 22 25 26 20 18 17 17 12 15 14 12 6 4 11 14 13 12 11 10 10 9 9 9 9 8 8 8 8 8 9 9 11 11 12 12 12 12 11 10
5 3 6 7 11 27 23 28 24 23 12 15 18 19 16 13 14 11 15 16 15 8 6 4 11 13 12 12 10 10 10 11 12 11 11 10 10 10 9 11 12 13 14 14 15 16 16 14 12
5 14 10 5 11 18 16 23 22 22 16 16 23 30 32 31 29 28 25 11 20 17 11 6 2 5 9 12 8 4 8 13 12 13 13 13 13 14 12 11 13 13 15 17 18 19 18 18 17
8 8 12 10 5 10 26 20 13 15 15 26 32 30 28 28 27 25 27 26 17 13 17 10 6 3 2 12 10 9 10 9 8 8 12 13 14 15 13 13 15 15 14 15 22 22 22 22 21
16 21 11 8 4 12 21 16 18 16 30 38 36 36 29 28 28 22 24 25 21 12 12 18 12 7 5 3 13 9 11 13 11 12 12 13 11 15 16 17 18 19 19 18 18 22 22 25 22
27 10 8 5 3 10 26 11 7 19 38 38 37 35 32 27 26 28 23 23 20 20 14 14 20 15 9 6 8 14 9 12 13 14 15 17 17 15 17 18 23 23 24 22 22 20 19 20 22
6 6 5 4 2 4 8 4 9 32 40 33 34 33 32 29 25 24 22 18 18 16 16 11 10 13 16 13 8 8 18 12 13 15 16 19 21 22 22 22 23 24 24 25 26 24 24 24 24
2 5 7 4 6 4 7 7 10 31 34 29 31 29 30 30 24 23 24 26 25 22 15 11 10 12 8 11 14 12 12 14 18 19 18 20 22 25 27 27 25 29 26 29 31 32 30 32 31
8 5 5 8 9 11 13 8 10 25 31 29 28 28 28 28 25 21 23 26 30 31 27 19 12 4 4 6 11 13 13 18 16 21 22 22 23 25 29 30 31 28 30 35 33 33 37 34 35
10 6 7 7 9 20 10 12 8 21 27 25 26 27 29 29 23 20 21 24 24 26 28 29 22 19 9 7 9 12 14 13 16 17 17 20 26 24 27 29 33 33 32 32 35 36 36 40 38
11 6 11 17 20 20 12 10 8 17 17 24 25 25 27 27 25 19 17 19 24 25 27 27 26 25 24 24 20 11 12 13 14 14 15 19 16 23 27 26 32 31 35 37 35 38 39 40 40
6 19 18 26 16 17 16 6 8 10 21 24 22 21 22 23 23 21 19 18 19 23 23 23 24 23 23 22 19 17 10 8 11 16 19 20 19 21 18 22 29 32 37 38 40 38 39 45 43
6 12 20 22 22 14 8 5 10 13 11 16 22 23 22 20 19 18 17 17 19 18 18 20 21 20 20 20 21 22 22 22 22 21 20 22 25 24 23 21 30 32 34 33 36 44 43 41 46
5 8 16 13 11 6 14 7 8 15 13 13 21 24 22 19 17 15 13 14 16 19 19 18 19 20 21 21 20 19 20 19 19 19 19 19 21 22 23 28 28 24 36 31 34 35 42 46 44
3 10 8 5 5 5 16 8 13 16 18 14 21 25 21 19 18 19 14 12 14 17 19 20 21 24 25 23 21 21 20 21 22 21 22 22 22 23 23 24 29 31 30 25 27 29 37 41 50
4 7 3 1 3 5 7 9 5 13 18 24 24 26 21 16 14 13 12 11 13 17 21 23 23 24 25 25 23 24 23 23 24 24 25 26 25 24 25 26 27 30 33 33 34 34 29 24 31
6 6 5 7 5 4 5 5 2 16 27 31 32 27 21 18 15 13 11 10 11 14 18 19 19 22 25 25 24 25 25 25 26 27 27 26 27 27 27 28 29 28 28 32 33 34 32 32 27
6 7 3 1 3 4 5 5 7 14 15 25 28 28 24 19 14 12 10 8 9 10 14 16 18 19 22 24 26 27 28 28 28 28 28 28 28 29 30 29 30 30 30 28 30 34 36 25 34
1 2 4 1 6 6 7 8 10 17 16 15 20 26 21 19 16 14 12 10 8 8 10 13 15 16 19 19 23 26 28 28 29 29 30 31 31 31 31 31 32 33 33 33 33 33 35 38 32
3 3 3 4 4 5 6 5 14 20 19 17 21 28 24 19 16 13 11 8 6 6 9 12 13 15 17 19 19 21 24 29 30 30 31 32 33 33 34 35 36 36 36 35 35 36 37 35 38
2 5 5 4 4 3 4 3 16 17 21 25 24 26 21 16 13 10 9 6 4 5 8 11 12 15 16 15 18 20 23 28 30 30 31 32 33 34 36 38 39 38 39 37 38 37 37 38 40
Wind_Direction
321 336 334 321 54 79 185 245 239 79 47 91 87 78 70 53 79 113 139 159 127 141 145 151 155 159 156 142 129 115 105 97 94 98 107 109 107 103 94 85 91 95 108 111 115 121 124 121 119
336 16 318 311 81 84 277 227 257 116 118 97 88 91 72 69 94 123 123 132 132 140 143 151 154 162 160 146 135 124 106 93 92 98 107 111 108 103 94 88 90 99 110 118 118 124 123 121 118
353 319 320 141 146 173 226 251 116 58 80 93 89 63 54 71 115 130 137 134 149 138 139 148 153 162 164 152 142 131 115 104 95 99 107 112 112 103 92 84 91 103 109 117 124 123 121 121 119
332 317 249 104 218 238 233 21 68 52 64 90 110 60 48 104 115 137 137 140 147 135 138 142 150 159 164 159 150 142 133 120 104 108 112 116 117 113 100 90 94 108 114 121 121 121 121 123 126
327 263 282 218 278 292 27 60 64 63 61 74 86 82 88 97 120 130 136 127 135 136 137 136 141 152 157 159 156 152 147 138 122 123 121 125 125 121 116 105 106 118 121 130 134 133 133 132 136
293 254 324 47 79 8 34 49 75 67 65 92 92 98 96 113 123 129 129 113 113 132 141 140 139 141 149 153 158 162 163 157 143 142 136 144 145 140 131 126 129 133 139 146 151 150 147 145 145
209 97 243 116 327 31 33 77 74 75 55 75 106 93 111 123 131 134 133 131 133 143 156 152 147 145 148 154 159 163 170 177 181 175 167 173 177 171 161 155 152 154 158 162 167 168 165 161 158
260 135 326 278 157 100 64 80 80 71 50 63 76 95 117 125 140 132 140 146 152 150 169 170 162 159 160 165 168 169 172 182 197 204 204 199 197 196 189 180 176 174 177 181 185 189 190 187 181
279 47 35 359 94 69 59 92 81 76 74 70 87 102 121 131 139 137 148 160 184 221 218 191 181 176 177 178 184 187 189 189 194 208 220 219 215 212 213 204 197 197 199 200 204 207 209 212 212
138 92 113 350 17 95 66 64 86 85 65 62 71 111 121 133 148 153 173 189 204 211 177 204 198 194 193 196 198 200 205 208 210 209 213 226 229 227 228 229 224 218 213 218 219 222 226 231 235
205 164 155 21 26 102 91 67 85 86 70 66 67 68 119 136 151 183 194 211 216 221 203 166 211 206 207 209 209 221 221 221 221 224 227 222 228 232 238 238 232 237 237 233 233 233 234 237 240
141 76 98 54 35 107 93 100 79 81 96 95 76 81 84 73 67 69 60 76 199 208 216 207 170 215 211 218 218 258 277 248 237 239 236 232 234 236 231 253 259 258 258 253 247 245 245 246 247
110 112 90 101 58 66 97 85 102 91 109 92 86 73 66 61 58 59 55 69 114 176 211 217 223 220 203 221 222 254 292 309 266 281 265 248 240 238 240 252 264 258 267 281 265 256 254 253 253
130 111 103 125 77 84 86 67 87 73 97 80 78 69 63 56 49 53 44 45 64 100 164 204 229 236 234 263 213 250 265 297 302 286 296 296 283 254 233 251 267 262 261 268 281 270 265 264 262
106 91 68 35 123 110 83 37 43 86 91 81 78 72 64 56 48 47 40 39 47 70 123 160 198 213 250 275 225 228 260 262 279 280 279 279 282 281 260 242 259 268 262 270 274 270 274 275 271
108 95 107 275 139 9 95 92 21 95 90 83 83 76 70 62 56 50 47 39 43 59 85 129 131 173 200 214 247 261 237 248 258 269 264 271 272 272 271 268 251 262 264 260 267 269 266 264 268
310 161 126 171 199 118 93 115 66 95 92 88 87 85 81 75 60 48 52 51 55 57 62 92 121 155 163 207 220 223 245 247 248 265 266 269 272 274 273 275 275 255 254 253 258 260 265 262 262
183 156 160 154 194 106 108 116 86 99 100 100 98 94 89 80 69 56 58 55 56 57 60 60 61 87 149 204 235 257 249 246 270 242 253 258 272 274 272 274 275 276 271 257 255 260 255 260 265
180 163 144 186 155 114 116 112 109 104 107 108 106 101 97 90 78 57 55 52 52 52 52 52 52 43 11 287 272 259 264 276 263 267 285 260 256 259 274 273 273 275 271 274 261 258 261 260 260
255 201 143 113 119 118 116 101 94 97 106 105 100 101 100 96 84 67 46 48 47 43 44 44 44 39 39 38 25 315 292 290 296 301 297 284 291 260 261 268 274 278 274 273 273 261 259 263 261
192 149 140 134 120 115 116 100 120 119 113 112 110 104 102 97 89 73 61 45 46 43 36 37 38 37 36 33 27 27 26 337 285 286 278 285 296 282 278 268 267 265 272 274 272 269 267 258 260
105 162 141 139 133 150 162 167 169 156 151 133 124 109 105 98 92 85 69 53 49 49 45 40 36 30 27 24 25 25 24 18 14 3 342 325 313 303 296 282 263 262 264 268 268 272 271 267 260
169 161 153 158 135 128 212 117 182 160 152 136 119 111 105 101 96 89 74 47 35 34 41 43 29 35 35 27 16 11 12 12 5 1 359 348 339 327 317 311 297 277 257 268 262 266 259 269 265
140 85 65 135 169 194 210 182 179 176 158 138 124 120 115 114 105 95 79 47 32 24 27 27 21 22 18 22 25 21 9 0 356 354 350 349 351 350 344 331 339 327 308 289 285 271 262 257 264
73 98 83 41 244 206 197 193 208 169 146 137 131 127 124 118 118 110 89 67 42 25 21 20 16 12 13 12 13 15 16 12 5 355 349 347 343 339 337 336 336 338 337 312 308 285 287 282 259
195 156 152 178 184 153 206 145 157 118 122 132 135 138 139 133 120 117 100 79 55 33 25 22 17 8 6 10 14 12 11 10 7 5 2 353 344 339 335 330 331 331 333 328 316 320 313 293 287
207 230 178 160 112 94 123 49 77 122 125 131 138 141 141 141 138 128 113 91 63 40 31 20 12 8 4 10 8 7 5 4 4 1 359 356 353 347 338 331 324 322 324 325 324 317 317 321 301
193 278 148 277 166 171 155 178 170 159 155 150 146 147 148 143 136 131 116 101 77 50 21 5 5 6 2 10 4 360 357 358 357 357 357 354 351 348 343 339 335 327 318 321 318 319 318 319 320
169 221 203 165 150 167 146 235 168 169 161 154 154 155 146 134 131 129 116 102 69 17 3 1 356 354 3 6 360 356 351 350 353 355 354 351 348 347 344 340 337 333 331 325 318 318 310 313 319
215 205 178 129 211 171 119 270 151 151 155 158 155 144 145 146 148 139 131 115 72 21 358 355 348 347 354 359 350 354 344 346 349 349 348 348 347 346 342 339 336 334 332 329 328 321 313 310 304
Height
1520 1519 1516 1515 1526 1527 1539 1530 1500 1493 1490 1491 1493 1498 1506 1506 1510 1532 1527 1528 1529 1532 1534 1538 1541 1543 1545 1546 1547 1549 1551 1552 1553 1555 1557 1559 1560 1562 1564 1564 1565 1565 1566 1565 1567 1568 1570 1571 1573
1519 1518 1516 1515 1531 1540 1533 1505 1505 1489 1491 1493 1498 1500 1506 1517 1515 1523 1526 1530 1531 1534 1536 1539 1542 1544 1546 1548 1549 1551 1552 1554 1555 1556 1558 1559 1562 1564 1565 1566 1567 1567 1567 1568 1568 1570 1571 1572 1573
1518 1518 1519 1520 1529 1540 1525 1499 1490 1489 1489 1490 1499 1503 1512 1521 1522 1524 1527 1531 1533 1534 1537 1541 1544 1546 1548 1549 1550 1552 1555 1556 1557 1558 1559 1560 1562 1564 1565 1567 1568 1568 1569 1570 1571 1572 1573 1574 1576
1518 1518 1518 1524 1521 1511 1502 1496 1493 1492 1495 1496 1499 1512 1520 1520 1522 1524 1530 1532 1534 1537 1539 1541 1544 1547 1549 1551 1552 1554 1556 1558 1559 1560 1561 1562 1563 1565 1566 1567 1568 1569 1570 1571 1572 1574 1575 1577 1578
1518 1517 1524 1525 1516 1504 1498 1494 1497 1501 1504 1507 1502 1524 1524 1526 1528 1530 1533 1535 1537 1539 1542 1544 1546 1548 1550 1552 1554 1556 1557 1559 1560 1561 1562 1563 1564 1566 1567 1568 1569 1570 1572 1573 1574 1575 1577 1578 1580
1518 1514 1527 1538 1517 1506 1502 1502 1497 1504 1511 1514 1514 1520 1529 1533 1534 1535 1535 1537 1540 1542 1544 1546 1548 1549 1551 1553 1555 1557 1559 1560 1561 1562 1563 1564 1566 1567 1568 1569 1571 1572 1573 1575 1576 1577 1578 1579 1581
1517 1520 1525 1526 1521 1515 1508 1507 1508 1507 1513 1516 1520 1523 1533 1535 1537 1538 1539 1541 1543 1545 1546 1548 1549 1551 1552 1554 1555 1557 1559 1561 1562 1563 1564 1565 1567 1568 1569 1570 1572 1573 1574 1576 1577 1578 1580 1580 1581
1514 1516 1520 1520 1524 1520 1512 1513 1512 1511 1518 1518 1518 1528 1534 1537 1538 1540 1540 1543 1546 1547 1548 1549 1550 1551 1553 1555 1556 1557 1559 1561 1563 1564 1565 1566 1567 1569 1570 1571 1572 1574 1575 1576 1577 1578 1579 1580 1581
1512 1523 1533 1523 1521 1523 1518 1514 1516 1520 1519 1521 1526 1530 1534 1538 1540 1542 1543 1544 1545 1548 1549 1550 1550 1552 1553 1555 1557 1558 1559 1560 1562 1564 1566 1567 1568 1569 1570 1572 1573 1574 1575 1576 1577 1577 1578 1579 1580
1511 1525 1521 1518 1516 1519 1520 1518 1518 1521 1525 1527 1530 1534 1536 1539 1542 1542 1542 1542 1543 1544 1547 1549 1550 1552 1553 1555 1556 1558 1559 1561 1562 1563 1565 1567 1568 1569 1570 1571 1573 1573 1574 1575 1576 1577 1577 1578 1579
1508 1520 1516 1516 1518 1517 1521 1523 1524 1523 1530 1533 1534 1537 1539 1542 1545 1544 1542 1536 1538 1540 1543 1546 1549 1551 1553 1554 1556 1558 1559 1560 1562 1563 1565 1565 1566 1568 1569 1570 1571 1573 1573 1574 1575 1575 1575 1576 1577
1510 1512 1513 1518 1518 1522 1522 1525 1527 1526 1532 1535 1537 1535 1536 1537 1541 1543 1542 1541 1543 1539 1541 1544 1547 1550 1553 1553 1555 1557 1559 1560 1561 1562 1564 1565 1566 1566 1567 1568 1570 1571 1572 1573 1573 1573 1574 1575 1575
1510 1512 1515 1519 1519 1523 1523 1524 1527 1529 1533 1537 1535 1536 1538 1539 1540 1541 1542 1540 1541 1544 1545 1544 1545 1547 1550 1552 1554 1556 1558 1559 1561 1563 1563 1564 1566 1567 1567 1567 1568 1569 1570 1571 1571 1571 1571 1572 1572
1504 1510 1516 1519 1522 1525 1523 1528 1527 1532 1536 1538 1538 1542 1542 1542 1543 1540 1539 1542 1541 1543 1547 1549 1547 1547 1549 1552 1553 1555 1558 1558 1559 1560 1561 1562 1564 1565 1565 1567 1567 1566 1567 1568 1569 1568 1569 1569 1569
1504 1514 1517 1520 1523 1526 1525 1536 1535 1537 1536 1541 1545 1547 1547 1548 1546 1548 1548 1546 1546 1544 1543 1545 1548 1552 1551 1552 1555 1557 1558 1559 1559 1560 1560 1560 1561 1564 1565 1565 1566 1566 1565 1565 1565 1565 1564 1564 1565
1509 1517 1531 1523 1521 1525 1526 1551 1541 1539 1538 1547 1549 1552 1553 1554 1554 1554 1553 1551 1549 1548 1546 1547 1548 1550 1552 1553 1555 1557 1558 1559 1559 1559 1561 1560 1560 1560 1562 1563 1563 1564 1564 1563 1561 1561 1560 1560 1560
1512 1530 1527 1528 1523 1526 1530 1547 1543 1542 1544 1550 1553 1557 1559 1560 1560 1559 1557 1555 1552 1550 1549 1548 1548 1548 1550 1551 1553 1553 1555 1556 1559 1560 1559 1559 1558 1558 1558 1558 1559 1560 1560 1560 1560 1558 1557 1556 1555
1519 1520 1523 1526 1525 1529 1539 1546 1544 1547 1548 1554 1558 1561 1562 1562 1564 1564 1561 1559 1556 1553 1550 1549 1548 1548 1548 1549 1551 1552 1553 1554 1553 1552 1552 1556 1556 1555 1554 1553 1553 1554 1554 1553 1554 1554 1554 1552 1552
1503 1512 1522 1520 1517 1529 1542 1546 1548 1551 1553 1557 1560 1562 1564 1565 1567 1566 1564 1562 1558 1555 1553 1550 1548 1548 1547 1547 1549 1551 1551 1550 1549 1549 1549 1548 1547 1548 1549 1547 1547 1547 1547 1547 1548 1548 1548 1547 1547
1501 1509 1518 1519 1521 1532 1546 1553 1552 1553 1556 1559 1562 1564 1565 1567 1568 1568 1567 1565 1561 1559 1557 1555 1553 1552 1550 1549 1549 1548 1548 1547 1547 1545 1544 1544 1541 1541 1540 1542 1542 1540 1541 1540 1541 1542 1541 1539 1541
1498 1502 1510 1517 1525 1535 1543 1559 1557 1556 1558 1561 1563 1565 1567 1568 1569 1569 1568 1567 1565 1562 1560 1558 1557 1555 1554 1552 1551 1549 1548 1546 1544 1543 1541 1540 1539 1538 1537 1534 1534 1533 1533 1531 1532 1533 1533 1531 1531
1506 1496 1499 1512 1526 1548 1535 1573 1558 1556 1558 1560 1563 1565 1567 1569 1570 1570 1570 1569 1568 1566 1564 1562 1559 1557 1555 1553 1551 1548 1546 1544 1543 1541 1539 1536 1534 1534 1531 1530 1527 1526 1525 1524 1522 1524 1523 1523 1521
1501 1495 1500 1507 1528 1538 1541 1555 1556 1550 1557 1559 1561 1564 1567 1569 1570 1571 1571 1570 1569 1568 1566 1563 1561 1559 1556 1553 1551 1549 1547 1545 1544 1541 1538 1536 1533 1530 1527 1524 1523 1519 1518 1516 1516 1514 1513 1513 1512
1493 1497 1506 1514 1526 1549 1527 1540 1553 1546 1547 1555 1559 1563 1566 1569 1571 1571 1571 1571 1570 1570 1567 1565 1562 1559 1556 1553 1552 1550 1547 1544 1541 1539 1536 1533 1530 1526 1524 1522 1518 1514 1508 1509 1507 1506 1505 1502 1502
1498 1508 1539 1546 1545 1543 1516 1530 1537 1535 1541 1547 1555 1561 1565 1568 1569 1571 1571 1571 1571 1568 1567 1566 1564 1560 1557 1554 1551 1550 1547 1544 1541 1537 1533 1529 1527 1524 1520 1515 1512 1508 1506 1504 1499 1498 1496 1492 1489
1503 1506 1535 1540 1544 1531 1507 1539 1543 1531 1539 1545 1552 1559 1563 1566 1568 1570 1571 1571 1569 1568 1568 1566 1564 1560 1558 1555 1552 1550 1547 1544 1541 1538 1534 1530 1526 1522 1518 1514 1509 1504 1500 1494 1497 1492 1489 1486 1484
1504 1509 1500 1511 1509 1532 1536 1539 1538 1536 1541 1545 1551 1557 1561 1564 1567 1568 1569 1569 1569 1569 1568 1565 1562 1560 1558 1556 1553 1549 1546 1543 1541 1538 1534 1529 1525 1520 1515 1511 1507 1504 1500 1496 1490 1483 1484 1477 1467
1496 1498 1513 1514 1527 1535 1535 1537 1536 1536 1538 1542 1548 1553 1558 1562 1564 1566 1567 1568 1568 1567 1566 1564 1562 1560 1559 1556 1553 1550 1547 1544 1541 1537 1533 1528 1523 1518 1513 1508 1503 1498 1495 1490 1484 1477 1474 1467 1468
1500 1501 1498 1501 1510 1530 1538 1532 1514 1523 1528 1536 1543 1549 1554 1558 1562 1564 1565 1566 1565 1566 1564 1563 1562 1559 1557 1555 1553 1550 1547 1543 1540 1536 1532 1527 1521 1515 1510 1505 1499 1494 1489 1484 1479 1474 1468 1459 1452
1488 1491 1494 1514 1510 1507 1523 1531 1506 1518 1527 1533 1540 1546 1551 1555 1560 1561 1562 1563 1564 1564 1563 1562 1560 1558 1555 1554 1551 1549 1545 1541 1538 1534 1530 1524 1518 1513 1508 1502 1496 1490 1485 1480 1475 1468 1463 1456 1456